Location: Krasnoyarskiy Pitomnik
(51.1333°N, 71.6167°E)
Time: 11:01:39
(UTC+00:00)

Altair - Pass Details

Date: 15 April 2024
Orbit: 1501 x 1682 km, 47.2° (Epoch: 17 May)

Event Time Altitude Azimuth Distance (km) Brightness Sun altitude
Rises 17:40:38 0° 257° (WSW) 4,873 10.3 -25.5°
Reaches altitude 10° 17:43:49 10° 255° (WSW) 3,865 9.7 -25.7°
Maximum altitude 17:53:34 71° 175° (S) 1,666 7.4 -26.3°
Drops below altitude 10° 18:02:56 10° 94° (E) 3,724 9.3 -26.9°
Sets 18:05:57 0° 92° (E) 4,688 9.9 -27.0°
